DELTA 1 DEB, 7045

Orbit data source: Space-Track

DELTA 1 DEB, 7045 is space debris in SSO originally from a launch on Tue, 06 Nov 1973 UTC launched from the Air Force Western Test Range (AFWTR). Debris objects in space refer to the collection of defunct objects orbiting the Earth. Examples of debris include non-operational satellites, rocket bodies, and fragments generated from explosions, collisions, or faulty payload assembly.

Loading next visibility...
Identifier
7045, 1973-086AM
Orbit
SSO
Country
Flag of USUS
Related business
Manufacturer
Unknown
Mission
Spacecraft
Bus & Motor
Unknown
Mass
Unknown
Launch date (UTC)
1973-11-06 (52 years ago)
Launch vehicle
Unknown
Launch site
Air Force Western Test Range (AFWTR)
Object type
Payload
Rocket body
Debris
Shape & HBR
Unknown
Radar Cross Section
Medium (>0.1 m² and <1 m²)

Expand to show TLE details & history
Last TLE update: 8 hours ago

TLE from 8 hours ago
0 DELTA 1 DEB
1 07045U 73086AM  25259.56372784 -.00000008  00000-0  33163-3 0  9993
2 07045 102.6143 271.6066 0077436 108.2637  17.5214 12.26131276313971
Epoch: 2025-09-16T13:31Z
TLE epoch observation values (Epoch: 2025-09-16T13:31:46.085Z)
Latitude
52.18151°
Longitude
-90.41494°
Altitude
1,515.518 km
Speed
7.138 km/s
True Right ascension
07h 13m 07s
True Declination
52° 01' 51"
Sunlit
Object was in daylight at epoch
Visualization orbit readout
Latitude
Unknown
Longitude
Unknown
Altitude
Unknown
Speed
Unknown
Apparent Right ascension
Unknown
Apparent Declination
Unknown
Sunlit
N/A
Visualization observer readout
Local Sidereal Time
14:29:37
Azimuth
Unknown
Elevation
Unknown
Doppler factor
Unknown
Orbital elements
Apogee altitude
1,625.075 km
Perigee altitude
1,502.08 km
Semi-major axis
7,941.714 km
Eccentricity
0.00774
Inclination
102.6143°
RAAN
271.6066°
Arg. of periapsis
108.2637°
True anomaly
17.79103°
Mean anomaly
17.5214°
Eccentric anomaly
17.65597°
Mean motion
3.0667 °/min
Orbital period
117.39 mins
BSTAR
0.00033163
Loading maneuver chart data...
Computing Atmospheric mass density...
Loading historical data...
Loading historical data...
Loading historical data...
Loading historical data...
Loading historical data...
Loading historical data...
Loading historical data...

Documentation

Showing up to 5 results
|